Regional Weather Roundup
Issued by NWS

Home | Current Version | Previous Version | Graphics & Text | Print | Product List | Glossary On
Versions: 1 2 3 4 5 6 7 8 9 10 11 12 13 14 15 16 17 18 19 20 21 22 23 24 25 26 27 28
000
ASUS45 KGTF 250310
RWRMT
MONTANA HOURLY WEATHER ROUNDUP
NATIONAL WEATHER SERVICE GREAT FALLS MT
900 PM MDT FRI APR 24 2015

NOTE: "FAIR" INDICATES FEW OR NO CLOUDS BELOW 12000 FEET WITH NO
SIGNIFICANT WEATHER AND/OR OBSTRUCTIONS TO VISIBILITY.

MTZ001>007-043-250400-
WEST OF THE DIVIDE

CITY           SKY/WX    TMP DP  RH WIND       PRES   REMARKS
KALISPELL      MOCLDY    46  21  37 W6        29.75R
MISSOULA       CLOUDY    44  23  43 NW7       29.79R
BUTTE          CLOUDY    35  32  88 W5        29.75R
DEER LODGE       N/A     41  30  65 NW9       29.78R
EUREKA           N/A     43  21  42 CALM      29.77R
HAMILTON         N/A     45  23  42 N8        29.78R
LIBBY            N/A     45  28  53 CALM      29.78R
$$

MTZ008-052>055-250400-
SOUTHWEST MONTANA

CITY           SKY/WX    TMP DP  RH WIND       PRES   REMARKS
BOZEMAN        LGT RAIN  39  37  92 W13       29.72R WCI  31
DILLON         LGT RAIN  37  34  89 NE14      29.73R WCI  28
$$

MTZ009-010-012-014-046-048-049-054-250400-
EAST SLOPES AND CENTRAL MONTANA

CITY           SKY/WX    TMP DP  RH WIND       PRES   REMARKS
CUT BANK       CLOUDY    45  20  36 W16       29.69R
GREAT FALLS    LGT RAIN  43  39  86 SE6       29.70R
MALMSTROM AFB  LGT RAIN  43  42  96 SW7       29.72R
HELENA         CLOUDY    47  30  51 W10       29.71R
$$

MTZ011-013-016-021-045-047-050-051-250400-
NORTH CENTRAL MONTANA

CITY           SKY/WX    TMP DP  RH WIND       PRES   REMARKS
HAVRE          LGT RAIN  55  36  48 SW9       29.65R
LEWISTOWN      LGT RAIN  44  41  89 NW5       29.68S
CHINOOK          N/A     55  34  44 CALM      29.65R
FORT BENTON      N/A     46  39  76 W10       29.70R
$$

MTZ017>020-022>042-056>058-061-062-250400-
EASTERN PLAINS

CITY           SKY/WX    TMP DP  RH WIND       PRES   REMARKS
BAKER          MOCLDY    47  35  63 SE8       29.62R
BILLINGS       MOCLDY    57  37  47 NW23G32   29.55R
GLASGOW        CLOUDY    56  34  43 N9        29.60R
JORDAN           N/A     59  34  39 E8        29.61R
LIVINGSTON     LGT RAIN  44  39  82 W18       29.66R
MILES CITY     CLOUDY    51  46  83 NE5       29.57F
SIDNEY         CLOUDY    55  39  54 CALM      29.62R
WOLF POINT     MOCLDY    56  44  64 SE3       29.60R
BIG TIMBER       N/A     46  41  81 SW7       29.65R
FORSYTH          N/A     52  48  87 E6        29.58R
PLENTYWOOD       N/A     55  34  44 E14       29.62S
POPLAR           N/A     59  39  47 E5        29.60S
$$

REGIONAL REPORTS...DAKOTAS

CITY           SKY/WX    TMP DP  RH WIND       PRES   REMARKS
WILLISTON      MOCLDY    59  34  39 SE8       29.63R
MINOT          FAIR      48  36  63 E9        29.69R
DICKINSON      PTCLDY    50  32  50 E8        29.64R
BEACH          FAIR      50  32  50 E10       29.63R
CROSBY         FAIR      52  37  58 E12       29.67R
WATFORD CITY   FAIR      50  32  50 SE9       29.62R
BISMARCK       CLEAR     52  41  66 E10       29.68R
GRAND FORKS    CLOUDY    49  37  63 SE10      29.80R
FARGO          CLOUDY    47  39  74 E12       29.77R
BUFFALO SD       N/A     54  34  46 E13       29.58R
RAPID CITY     MOCLDY    48  44  86 W3        29.61R
$$

REGIONAL REPORTS...WYOMING/IDAHO/WASHINGTON

CITY           SKY/WX    TMP DP  RH WIND       PRES   REMARKS
GILLETTE       CLOUDY    54  40  59 CALM      29.62S
SHERIDAN       MOCLDY    52  39  61 SE3       29.61S
BUFFALO WY     MOCLDY    47  41  80 SW7       29.66R
CODY           CLOUDY    50  37  62 SW13G20   29.61R
YELLOWSTONE LA   N/A     33  32  96 VRB3      29.75S
IDAHO FALLS    CLOUDY    48  39  71 S16       29.70R
SALMON         CLOUDY    45  37  76 S5        29.73R
BOISE          MOCLDY    53  31  42 CALM      29.73R
SPOKANE        CLOUDY    48  29  47 S6        29.78S
$$

REGIONAL REPORTS...ALBERTA

CITY           SKY/WX    TMP DP  RH WIND       PRES   REMARKS
EDMONTON       CLOUDY    39  28  65 E14       29.80R WCI  31
CALGARY        MOCLDY    39  34  81 N10       29.68R
LETHBRIDGE     MOCLDY    46  16  29 W18G24    29.66R
MEDICINE HAT   CLOUDY    50  27  40 W5        29.63R
$$

REGIONAL REPORTS...SASKATCHEWAN

CITY           SKY/WX    TMP DP  RH WIND       PRES   REMARKS
SWIFT CURRENT  MOCLDY    46  32  57 E15       29.65R
REGINA         CLOUDY    52  30  43 E20G26    29.68R
SASKATOON      MOCLDY    37  28  70 NE16G24   29.79R WCI  28
$$



USA.gov is the U.S. government's official web portal to all federal, state and local government web resources and services.